Regional Weather Roundup
Issued by NWS Sterling, VA

Home | Current Version | Previous Version | Graphics & Text | Print | Product List | Glossary On
Versions: 1 2 3 4 5 6 7 8 9 10 11 12 13 14 15 16 17 18 19 20 21 22 23 24 25 26 27 28 29 30 31 32 33 34 35 36 37 38 39 40 41 42 43 44 45 46 47 48 49 50
000
ASUS41 KLWX 031410
RWRLWX

REGIONAL WEATHER ROUNDUP
NATIONAL WEATHER SERVICE BALTIMORE MD/WASHINGTON DC
1000 AM EDT FRI JUL 03 2015

Note: "FAIR" indicates few or no clouds below 12,000 feet
with no significant weather and/or obstructions to visibility.
 TC=TEMPERATURE CELSIUS

 * =Non NWS site. Station does not report precipitation (e.g. rain,
    snow, etc.), thunder, or fog.

DCZ001-MDZ009-015-VAZ040>042-051-053>054-031500-
WASHINGTON METRO

CITY           SKY/WX    TMP DP  RH WIND       PRES   REMARKS
WASHINGTON NAT PTSUNNY   75  66  73 CALM      30.00R
DULLES         PTSUNNY   73  64  73 CALM      30.00R
ANDREWS AFB    MOSUNNY   73  70  88 SE1       30.00R
FT BELVOIR     PTSUNNY   72  67  86 SE3       30.00R
QUANTICO       PTSUNNY   72  66  81 S3        30.01R
COLLEGE PARK*  PTSUNNY   73  66  78 CALM      29.99R
LEESBURG*      PTSUNNY   72  68  88 NW5       30.01R
MANASSAS*      MOSUNNY   64  64 100 CALM      30.00R
GAITHERSBURG*  MOSUNNY   72  66  83 SE3       30.04R

$$

MDZ006>007-011-014-031500-
BALTIMORE METRO

CITY           SKY/WX    TMP DP  RH WIND       PRES   REMARKS
BWI AIRPORT    PTSUNNY   72  64  76 E3        29.99R
MD SCIENCE CTR   N/A     74  64  71 MISG      30.02R
MARTIN STATE   MOSUNNY   73  70  88 CALM      30.00R FOG
ANNAPOLIS      PTSUNNY   74  66  76 SE6       29.99R HAZE
FORT MEADE*    MOSUNNY   70  64  83 CALM      30.02R

$$

MDZ012-015-019>023-031500-
MARYLAND EASTERN SHORE

CITY           SKY/WX    TMP DP  RH WIND       PRES   REMARKS
OCEAN CITY     MOSUNNY   75  65  70 NE5       29.99R
SALISBURY      PTSUNNY   75  64  68 E5        29.99R
BAY BRIDGE AP*   N/A     73  64  73 S5        29.99R
CAMBRIDGE*     CLOUDY    72  64  78 CALM      29.99R

$$

MDZ017>025-031500-
SOUTHERN MARYLAND

CITY           SKY/WX    TMP DP  RH WIND       PRES   REMARKS
PATUXENT RIVER PTSUNNY   75  64  68 SE6       30.00R
ST INIGOES     MOSUNNY   76  64  66 CALM      29.99R
LEONARDTOWN*   PTSUNNY   73  64  73 CALM      30.01S

$$

MDZ003>005-031500-
NORTH CENTRAL MARYLAND

CITY           SKY/WX    TMP DP  RH WIND       PRES   REMARKS
FREDERICK*     CLOUDY    66  66 100 NE5       30.02S
HAGERSTOWN APT PTSUNNY   71  64  78 CALM      30.00S HAZE
WESTMINSTER*   MOSUNNY   73  66  78 SE3       30.01R

$$

MDZ501>502-031500-
WESTERN MARYLAND

CITY           SKY/WX    TMP DP  RH WIND       PRES   REMARKS
OAKLAND*       MOSUNNY   64 N/A N/A SE13      30.04S
CUMBERLAND*    MOSUNNY   68  61  77 CALM      30.03F

$$

VAZ025>031-031500-
SHENANDOAH VALLEY

CITY           SKY/WX    TMP DP  RH WIND       PRES   REMARKS
WINCHESTER*    PTSUNNY   72  63  73 CALM      30.00S
FRONT ROYAL*   PTSUNNY   68  64  88 CALM      29.99S
LURAY*         PTSUNNY   68  68 100 CALM      30.00S FOG
NEW MARKET*    PTSUNNY   67  65  93 CALM      29.99S
STAUNTON*      CLOUDY    69  65  88 CALM      30.03S FOG
WAYNESBORO*    CLOUDY    64  63  97 CALM      30.02S

$$

WVZ021-048>050-054>055-031500-
EASTERN WEST VIRGINIA PANHANDLE

CITY           SKY/WX    TMP DP  RH WIND       PRES   REMARKS
MARTINSBURG    PTSUNNY   68  63  84 NE7       30.00S HAZE
PETERSBURG*    PTSUNNY   69  58  69 CALM      30.00F

$$

VAZ036>039-050-031500-
CENTRAL FOOTHILLS

CITY           SKY/WX    TMP DP  RH WIND       PRES   REMARKS
CHARLOTTESVILL CLOUDY    69  64  84 CALM      30.00R HAZE
CULPEPER*      CLOUDY    67  65  94 CALM      30.01S
ORANGE*        CLOUDY    70  68  94 CALM      30.02R
GORDONSVILLE*  FAIR      70  66  88 CALM      30.00S
WARRENTON*     CLOUDY    67  67 100 CALM      30.00R FOG

$$

VAZ055>057-031500-
NORTH AND CENTRAL PIEDMONT

CITY           SKY/WX    TMP DP  RH WIND       PRES   REMARKS
FREDERICKSBRG* PTSUNNY   74  69  83 E3        29.99S
STAFFORD*      CLOUDY    70  66  88 CALM      30.04S FOG

$$

NCZ024-NYZ072-PAZ021-071-VAZ022-071-031500-
OTHER REGIONAL OBSERVATIONS

CITY           SKY/WX    TMP DP  RH WIND       PRES   REMARKS
NEW YORK CITY  SUNNY     71  52  50 VRB6      30.01S
PHILADELPHIA   PTSUNNY   76  60  57 E7        29.99S
PITTSBURGH     PTSUNNY   70  59  68 NE3       29.98S
ROANOKE        LGT RAIN  68  66  93 SE5       30.01S FOG
RICHMOND       MOSUNNY   77  66  68 SE8       29.99S
RALEIGH        CLOUDY    75  70  84 S5        29.98S

$$

ANZ530>537-031500-
MARINE OBSERVATIONS

STATION/POSITION TIME  TEMP    WIND        PRES
                       AIR SEA DIR/SP/G
                 (UTC) (F)     (DEG/KT/KT) (MB)
THOMAS PT LIGHT  NOT AVBL
BALT KEY BRIDGE  1300   69      40/  4/  5 1014.9R
COVE POINT       1300   72     110/  4/  6 1015.7R
LEWISETTA        1300   74 79  100/  3/  6 1015.1R
SOLOMONS ISLAND  1300      79                N/A
PINEY POINT      1300          130/  5/  6   N/A

$$



USA.gov is the U.S. government's official web portal to all federal, state and local government web resources and services.